Previsão horária em Abrera

Hoje, 9 Maio, Domingo

Tempo Temperatura Precipitação Vento Pressão Humidade
00:00 +17°C° 0 mm 0 m/s 746 mmHg 74%
01:00 +18°C° 0 mm 1 m/s 746 mmHg 74%
02:00 +18°C° 0 mm 1 m/s 746 mmHg 73%
03:00 +18°C° 0 mm 1 m/s 745 mmHg 73%
04:00 +17°C° 0 mm 2 m/s 745 mmHg 71%
05:00 +17°C° 0 mm 2 m/s 745 mmHg 68%
06:00 +18°C° 0 mm 2 m/s 744 mmHg 66%
07:00 +19°C° 0 mm 3 m/s 744 mmHg 60%
08:00 +21°C° 0 mm 4 m/s 744 mmHg 55%
09:00 +23°C° 0 mm 4 m/s 744 mmHg 49%
10:00 +23°C° 0 mm 4 m/s 743 mmHg 51%
11:00 +23°C° 0 mm 5 m/s 742 mmHg 53%
12:00 +25°C° 0 mm 5 m/s 742 mmHg 54%
13:00 +25°C° 0 mm 5 m/s 741 mmHg 56%
14:00 +25°C° 0 mm 4 m/s 741 mmHg 57%
15:00 +25°C° 0 mm 4 m/s 740 mmHg 59%
16:00 +23°C° 0 mm 4 m/s 740 mmHg 61%
17:00 +22°C° 0 mm 3 m/s 740 mmHg 64%
18:00 +21°C° 0 mm 3 m/s 741 mmHg 66%
19:00 +20°C° 0.2 mm 3 m/s 741 mmHg 72%
20:00 +19°C° 0.2 mm 3 m/s 742 mmHg 78%
21:00 +18°C° 0.2 mm 4 m/s 743 mmHg 84%
22:00 +18°C° 0.1 mm 3 m/s 742 mmHg 83%
23:00 +18°C° 0.1 mm 2 m/s 742 mmHg 83%

Amanhã, 10 Maio, Segunda-feira

Tempo Temperatura Precipitação Vento Pressão Humidade
00:00 +18°C° 0.1 mm 2 m/s 742 mmHg 83%
01:00 +17°C° 0 mm 2 m/s 742 mmHg 82%
02:00 +17°C° 0 mm 2 m/s 742 mmHg 81%
03:00 +16°C° 0 mm 1 m/s 742 mmHg 80%
04:00 +16°C° 0 mm 2 m/s 742 mmHg 77%
05:00 +16°C° 0 mm 2 m/s 743 mmHg 73%
06:00 +16°C° 0 mm 2 m/s 743 mmHg 70%
07:00 +17°C° 0 mm 2 m/s 743 mmHg 65%
08:00 +19°C° 0 mm 1 m/s 743 mmHg 59%
09:00 +20°C° 0 mm 1 m/s 743 mmHg 54%
10:00 +20°C° 0.1 mm 1 m/s 743 mmHg 52%
11:00 +20°C° 0.1 mm 2 m/s 743 mmHg 51%
12:00 +20°C° 0.1 mm 2 m/s 743 mmHg 50%
13:00 +21°C° 0.1 mm 2 m/s 743 mmHg 48%
14:00 +21°C° 0.1 mm 3 m/s 742 mmHg 47%
15:00 +22°C° 0.1 mm 4 m/s 742 mmHg 45%
16:00 +21°C° 0 mm 4 m/s 742 mmHg 49%
17:00 +20°C° 0 mm 4 m/s 742 mmHg 53%
18:00 +19°C° 0 mm 5 m/s 742 mmHg 56%
19:00 +18°C° 0.1 mm 4 m/s 742 mmHg 61%
20:00 +17°C° 0.1 mm 3 m/s 743 mmHg 65%
21:00 +17°C° 0.1 mm 2 m/s 743 mmHg 69%
22:00 +16°C° 0.7 mm 2 m/s 743 mmHg 72%
23:00 +16°C° 0.7 mm 3 m/s 742 mmHg 75%

Depois de amanhã, 11 Maio, Terça-feira

Tempo Temperatura Precipitação Vento Pressão Humidade
00:00 +16°C° 0.7 mm 3 m/s 742 mmHg 78%
01:00 +14°C° 0.3 mm 3 m/s 742 mmHg 78%
02:00 +14°C° 0.3 mm 4 m/s 742 mmHg 78%
03:00 +13°C° 0.3 mm 4 m/s 742 mmHg 78%
04:00 +13°C° 0 mm 4 m/s 742 mmHg 77%
05:00 +13°C° 0 mm 5 m/s 742 mmHg 76%
06:00 +12°C° 0 mm 5 m/s 742 mmHg 75%
07:00 +14°C° 0 mm 6 m/s 743 mmHg 66%
08:00 +15°C° 0 mm 7 m/s 743 mmHg 58%
09:00 +17°C° 0 mm 8 m/s 743 mmHg 49%
10:00 +18°C° 0.1 mm 8 m/s 743 mmHg 45%
11:00 +20°C° 0.1 mm 8 m/s 743 mmHg 40%
12:00 +21°C° 0.1 mm 8 m/s 743 mmHg 35%
13:00 +20°C° 0.2 mm 7 m/s 744 mmHg 40%
14:00 +19°C° 0.2 mm 6 m/s 745 mmHg 46%
15:00 +17°C° 0.2 mm 5 m/s 745 mmHg 51%
16:00 +17°C° 0.2 mm 4 m/s 746 mmHg 55%
17:00 +15°C° 0.2 mm 4 m/s 747 mmHg 59%
18:00 +16°C° 0.2 mm 3 m/s 747 mmHg 63%
19:00 +14°C° 0 mm 3 m/s 748 mmHg 67%
20:00 +14°C° 0 mm 2 m/s 749 mmHg 70%
21:00 +13°C° 0 mm 2 m/s 750 mmHg 74%
22:00 +13°C° 0 mm 1 m/s 749 mmHg 75%
23:00 +13°C° 0 mm 1 m/s 749 mmHg 76%

12 Maio, Quarta-feira

Tempo Temperatura Precipitação Vento Pressão Humidade
00:00 +12°C° 0 mm 1 m/s 749 mmHg 78%
01:00 +12°C° 0 mm 1 m/s 749 mmHg 77%
02:00 +12°C° 0 mm 1 m/s 748 mmHg 75%
03:00 +10°C° 0 mm 2 m/s 748 mmHg 74%
04:00 +12°C° 0 mm 2 m/s 748 mmHg 70%
05:00 +12°C° 0 mm 2 m/s 748 mmHg 65%
06:00 +13°C° 0 mm 2 m/s 748 mmHg 61%
07:00 +14°C° 0 mm 3 m/s 747 mmHg 53%
08:00 +17°C° 0 mm 4 m/s 747 mmHg 45%
09:00 +19°C° 0 mm 5 m/s 747 mmHg 37%
10:00 +20°C° 0 mm 6 m/s 746 mmHg 37%
11:00 +21°C° 0 mm 7 m/s 746 mmHg 37%
12:00 +22°C° 0 mm 8 m/s 745 mmHg 36%
13:00 +22°C° 0 mm 8 m/s 745 mmHg 35%
14:00 +23°C° 0 mm 8 m/s 744 mmHg 33%
15:00 +23°C° 0 mm 9 m/s 744 mmHg 31%
16:00 +22°C° 0 mm 7 m/s 744 mmHg 34%
17:00 +22°C° 0 mm 6 m/s 744 mmHg 36%
18:00 +21°C° 0 mm 4 m/s 744 mmHg 38%
19:00 +19°C° 0 mm 3 m/s 745 mmHg 43%
20:00 +18°C° 0 mm 3 m/s 745 mmHg 49%
21:00 +17°C° 0 mm 2 m/s 746 mmHg 54%
22:00 +16°C° 0 mm 2 m/s 746 mmHg 56%
23:00 +15°C° 0 mm 1 m/s 746 mmHg 59%

13 Maio, Quinta-feira

Tempo Temperatura Precipitação Vento Pressão Humidade
00:00 +15°C° 0 mm 1 m/s 746 mmHg 61%
01:00 +15°C° 0 mm 1 m/s 746 mmHg 63%
02:00 +14°C° 0 mm 1 m/s 745 mmHg 64%
03:00 +14°C° 0 mm 1 m/s 745 mmHg 66%
04:00 +14°C° 0 mm 1 m/s 745 mmHg 66%
05:00 +15°C° 0 mm 1 m/s 746 mmHg 67%
06:00 +15°C° 0 mm 1 m/s 746 mmHg 67%
07:00 +16°C° 0.1 mm 2 m/s 746 mmHg 64%
08:00 +17°C° 0.1 mm 3 m/s 746 mmHg 60%
09:00 +18°C° 0.1 mm 3 m/s 746 mmHg 56%
10:00 +19°C° 0.4 mm 4 m/s 746 mmHg 56%
11:00 +19°C° 0.4 mm 4 m/s 745 mmHg 57%
12:00 +19°C° 0.4 mm 4 m/s 745 mmHg 57%
13:00 +19°C° 0.4 mm 4 m/s 745 mmHg 57%
14:00 +19°C° 0.4 mm 4 m/s 745 mmHg 58%
15:00 +19°C° 0.4 mm 4 m/s 745 mmHg 58%
16:00 +18°C° 0.2 mm 4 m/s 745 mmHg 61%
17:00 +18°C° 0.2 mm 4 m/s 745 mmHg 64%
18:00 +17°C° 0.2 mm 4 m/s 745 mmHg 67%
19:00 +15°C° 0.2 mm 4 m/s 746 mmHg 73%
20:00 +14°C° 0.2 mm 4 m/s 746 mmHg 78%
21:00 +13°C° 0.2 mm 3 m/s 747 mmHg 84%
22:00 +13°C° 0.1 mm 3 m/s 746 mmHg 85%
23:00 +13°C° 0.1 mm 3 m/s 746 mmHg 86%

14 Maio, Sexta-feira

Tempo Temperatura Precipitação Vento Pressão Humidade
00:00 +14°C° 0.1 mm 2 m/s 746 mmHg 88%
01:00 +14°C° 0.3 mm 2 m/s 746 mmHg 89%
02:00 +14°C° 0.3 mm 2 m/s 745 mmHg 90%
03:00 +14°C° 0.3 mm 2 m/s 745 mmHg 91%
04:00 +13°C° 1.4 mm 2 m/s 745 mmHg 91%
05:00 +13°C° 1.4 mm 2 m/s 744 mmHg 90%
06:00 +12°C° 1.4 mm 3 m/s 744 mmHg 90%
07:00 +12°C° 4.4 mm 3 m/s 744 mmHg 89%
08:00 +12°C° 4.4 mm 3 m/s 744 mmHg 89%
09:00 +11°C° 4.4 mm 3 m/s 745 mmHg 88%
10:00 +12°C° 2.1 mm 3 m/s 745 mmHg 85%
11:00 +12°C° 2.1 mm 3 m/s 744 mmHg 82%
12:00 +13°C° 2.1 mm 3 m/s 744 mmHg 79%
13:00 +14°C° 0 mm 3 m/s 744 mmHg 74%
14:00 +16°C° 0 mm 3 m/s 744 mmHg 68%
15:00 +17°C° 0 mm 3 m/s 744 mmHg 63%
16:00 +16°C° 0.1 mm 3 m/s 744 mmHg 65%
17:00 +16°C° 0.1 mm 3 m/s 744 mmHg 68%
18:00 +14°C° 0.1 mm 3 m/s 744 mmHg 70%
19:00 +15°C° 0.3 mm 2 m/s 744 mmHg 74%
20:00 +14°C° 0.3 mm 2 m/s 745 mmHg 79%
21:00 +13°C° 0.3 mm 1 m/s 745 mmHg 83%
22:00 +13°C° 1.1 mm 2 m/s 745 mmHg 85%
23:00 +13°C° 1.1 mm 2 m/s 745 mmHg 88%
Mostrar mais

Necessitamos do seu Consentimento

A Meteoprog e os seus Fornecedores de Serviços podem armazenar e aceder a dados pessoais como cookies, identificadores do dispositivo ou outras tecnologias semelhantes existentes no seu dispositivo e processar estes dados para personalizar conteúdos e anúncios, assim como funcionalidades nas redes sociais e análise de tráfego.

  • Armazenar e/ou aceder a informações no seu dispositivo

    Os cookies, identificadores do dispositivo ou outras informações podem ser armazenados ou acedidos no seu dispositivo, para os fins acima indicados.

  • Anúncios e conteúdos personalizados, medição de anúncios e conteúdos, dados sobre o público-alvo e desenvolvimento de produtos

    Os anúncios e os conteúdos podem ser personalizados com base num perfil. Podem ser adicionados dados adicionais para uma maior personalização dos anúncios e dos conteúdos. A eficácia dos anúncios e dos conteúdos pode ser medida. Podem ser obtidas informações sobre o público que visualizou os anúncios e os conteúdos. Estes dados podem ser usados para desenvolver ou melhorar sistemas, softwares ou a experiência do utilizador.

Ao clicar em "Eu concordo”, permitirá o uso de cookies, identificadores do dispositivo e web beacons mencionados ou outras tecnologias semelhantes. As configurações do navegador do seu dispositivo podem ser alteradas.

Para certos fins, podem ser invocados interesses legítimos ao invés de consentimento. Pode ler mais informação sobre este assunto na nossa Política de Privacidade e Cookies.